Location: D�pe
(52.6057°N, 8.1808°E)
Time: 01:17:11
(UTC+00:00)

Cosmos 1709 Rocket - Pass Details

Date: 29 October 2020
Orbit: 949 x 1001 km, 82.9° (Epoch: 23 November)

Event Time Altitude Azimuth Distance (km) Brightness Sun altitude
Rises 18:34:55 0° 348° (NNW) 3,729 7.3 -23.6°
Reaches altitude 10° 18:37:27 10° 347° (NNW) 2,780 6.6 -24.0°
Maximum altitude 18:43:49 73° 264° (W) 1,048 4.2 -25.0°
Drops below altitude 10° 18:50:09 10° 181° (S) 2,765 6.3 -25.9°
Sets 18:52:40 0° 180° (S) 3,708 6.9 -26.3°
